SFJ903 RJDT-RKPK

Flight info

Callsign SFJ903
Flight time N/A
Altitude 11000
Route SARUI DCT PEDLO/N0345F100 DCT AKEVI/N0284F090 DCT OLMOG
Aircraft A320/M-SDE3FGHIRWY/LB1

Departure

Time N/A
Airport Tsushima Airport (RJDT)

Arrival

Time 2026-05-05 13:25
Airport Gimhae International Airport (RKPK)
Time Latitude Longitude Altitude Speed Heading
2026-05-05 13:13 34.86543 129.08980 12172 ft 361 kts 326°
2026-05-05 13:13 34.88569 129.07211 11583 ft 358 kts 318°
2026-05-05 13:14 34.90374 129.05185 11155 ft 353 kts 314°
2026-05-05 13:14 34.92100 129.03105 10999 ft 341 kts 312°
2026-05-05 13:14 34.93719 129.01076 10986 ft 322 kts 311°
2026-05-05 13:14 34.95108 128.99049 10963 ft 302 kts 297°
2026-05-05 13:15 34.95717 128.96707 10968 ft 279 kts 271°
2026-05-05 13:15 34.95425 128.94469 10974 ft 260 kts 248°
2026-05-05 13:15 34.94719 128.92528 10977 ft 245 kts 243°
2026-05-05 13:15 34.93961 128.90695 10830 ft 237 kts 242°
2026-05-05 13:16 34.93207 128.88911 10402 ft 243 kts 242°
2026-05-05 13:16 34.92405 128.87025 9759 ft 256 kts 242°
2026-05-05 13:16 34.91568 128.85068 9091 ft 269 kts 242°
2026-05-05 13:16 34.90704 128.83057 8394 ft 272 kts 242°
2026-05-05 13:17 34.89816 128.80992 7694 ft 271 kts 242°
2026-05-05 13:17 34.88956 128.78996 7028 ft 269 kts 242°
2026-05-05 13:17 34.88114 128.77002 6364 ft 266 kts 246°
2026-05-05 13:17 34.87808 128.74793 5605 ft 268 kts 278°
2026-05-05 13:18 34.88563 128.72736 4923 ft 269 kts 307°
2026-05-05 13:18 34.89991 128.71301 4314 ft 267 kts 332°
2026-05-05 13:18 34.91798 128.70725 3984 ft 270 kts 358°
2026-05-05 13:18 34.93656 128.71141 3951 ft 271 kts 22°
2026-05-05 13:19 34.95301 128.72108 3950 ft 254 kts 26°
2026-05-05 13:19 34.96827 128.73056 3938 ft 239 kts 26°
2026-05-05 13:19 34.98320 128.73967 3952 ft 251 kts 25°
2026-05-05 13:19 34.99936 128.75008 3947 ft 267 kts 30°
2026-05-05 13:20 35.01490 128.76277 3949 ft 269 kts 36°
2026-05-05 13:20 35.03004 128.77660 3951 ft 270 kts 37°
2026-05-05 13:20 35.04488 128.79042 3950 ft 269 kts 37°
2026-05-05 13:20 35.05989 128.80437 3947 ft 269 kts 37°
2026-05-05 13:21 35.07483 128.81819 3948 ft 269 kts 37°
2026-05-05 13:21 35.08974 128.83192 3951 ft 269 kts 37°
2026-05-05 13:21 35.10471 128.84570 3950 ft 269 kts 37°
2026-05-05 13:21 35.11949 128.85951 3953 ft 269 kts 37°
2026-05-05 13:22 35.13418 128.87349 3942 ft 259 kts 38°
2026-05-05 13:22 35.14824 128.88579 3919 ft 235 kts 23°
2026-05-05 13:22 35.16327 128.88896 3943 ft 205 kts 351°
2026-05-05 13:22 35.17662 128.88669 4094 ft 179 kts 350°
2026-05-05 13:23 35.18847 128.88551 3782 ft 172 kts 355°
2026-05-05 13:23 35.20108 128.88628 3014 ft 190 kts
2026-05-05 13:23 35.21366 128.89182 2368 ft 198 kts 30°
2026-05-05 13:23 35.22171 128.90427 1838 ft 181 kts 94°
2026-05-05 13:24 35.22070 128.91992 1152 ft 183 kts 119°
2026-05-05 13:24 35.21331 128.93082 866 ft 166 kts 150°
2026-05-05 13:24 35.20203 128.93419 342 ft 163 kts 174°
2026-05-05 13:24 35.19109 128.93559 91 ft 150 kts 176°
2026-05-05 13:25 35.18140 128.93677 27 ft 130 kts 176°
2026-05-05 13:25 35.17362 128.93773 23 ft 88 kts 173°
2026-05-05 13:25 35.17082 128.93895 23 ft 23 kts 145°
2026-05-05 13:25 35.17053 128.93921 23 ft 10 kts 144°
2026-05-05 13:26 35.16971 128.94019 23 ft 17 kts 110°
2026-05-05 13:26 35.16974 128.94171 23 ft 17 kts 85°
2026-05-05 13:26 35.16985 128.94313 23 ft 16 kts 83°
2026-05-05 13:26 35.16998 128.94447 24 ft 15 kts 77°
2026-05-05 13:27 35.17084 128.94495 25 ft 15 kts 353°
2026-05-05 13:27 35.17165 128.94488 24 ft 8 kts 33°
2026-05-05 13:27 35.17175 128.94568 25 ft 7 kts 90°
2026-05-05 13:27 35.17175 128.94574 25 ft 0 kts 89°